Weather History for Sigonella, Italy

Change the Weather History Date:

Tuesday, January 22, 2013

  Actual Average Record
Temperature  
Mean Temperature 54 °F -  
Max Temperature 61 °F 61 °F 64 °F (1997)
Min Temperature 44 °F 42 °F 33 °F (2008)
Degree Days  
Heating Degree Days 12    
Growing Degree Days 4 (Base 50)    
Moisture  
Dew Point 43 °F    
Average Humidity 75    
Maximum Humidity 100    
Minimum Humidity 26    
Precipitation  
Precipitation 0.00 in 0.07 in - ()
Sea Level Pressure  
Sea Level Pressure 29.81 in    
Wind  
Wind Speed 9 mph ()    
Max Wind Speed 23 mph    
Max Gust Speed -    
Visibility 6.6 miles    
Events Rain    
Averages and records for this station are not official NWS values.
T = Trace of Precipitation, MM = Missing Value Source: Averaged Metar Reports

Daily Weather History Graph

Daily Weather History Graph

Search for Another Location

Airport:

Trip Planner

Search our weather history database for the weather conditions in past years. The results will help you decide how hot, cold, wet, or windy it might be!

Date:

Astronomy

Jan. 22, 2013 Rise Set
Actual Time 7:10 AM CET 5:13 PM CET
Civil Twilight 6:42 AM CET 5:41 PM CET
Nautical Twilight 6:10 AM CET 6:13 PM CET
Astronomical Twilight 5:39 AM CET 6:44 PM CET
Moon 1:24 PM CET (1/22) 3:16 AM CET (1/22)
Length of Visible Light 10h 59m
Length of Day
10h 03m
Waxing Gibbous, 80% of the Moon is Illuminated
Jan 22
Waxing Gibbous
Jan 27
Full
Feb 3
Last Quarter
Feb 10
New
Feb 17
First Quarter

Hourly Weather History & Observations

Time (CET) Temp. Windchill Dew Point Humidity Pressure Visibility Wind Dir Wind Speed Gust Speed Precip Events Conditions
12:55 AM 51.8 °F - 51.8 °F 100% 29.71 in 6.2 mi WNW 3.5 mph - N/A   Light Drizzle
1:00 AM 52 °F - 52 °F 99% 29.73 in 6 mi WNW 3.5 mph - - Rain Light Drizzle
1:55 AM 50.0 °F - 50.0 °F 100% 29.71 in 5.0 mi NW 6.9 mph - N/A Rain Light Rain
2:55 AM 50.0 °F - 50.0 °F 100% 29.68 in 6.2 mi NW 5.8 mph - N/A   Mostly Cloudy
3:55 AM 51.8 °F - 50.0 °F 94% 29.68 in 6.2 mi West 12.7 mph - N/A   Mostly Cloudy
4:00 AM 51 °F - 49 °F 92% 29.71 in 9 mi West 12.7 mph - - Rain Light Rain
4:55 AM 50.0 °F - 50.0 °F 100% 29.68 in 6.2 mi NNW 8.1 mph - N/A Rain Light Rain
5:55 AM 51.8 °F - 50.0 °F 94% 29.68 in 6.2 mi West 8.1 mph - N/A   Scattered Clouds
6:55 AM 48.2 °F - 46.4 °F 93% 29.71 in 6.2 mi West 11.5 mph - N/A   Scattered Clouds
7:00 AM 47 °F - 47 °F 100% 29.73 in 9 mi West 11.5 mph - -   Partly Cloudy
7:55 AM 48.2 °F - 48.2 °F 100% 29.74 in 6.2 mi West 4.6 mph - N/A   Scattered Clouds
8:55 AM 53.6 °F - 50.0 °F 88% 29.77 in 6.2 mi WSW 12.7 mph - N/A   Scattered Clouds
9:55 AM 55.4 °F - 46.4 °F 72% 29.80 in 6.2 mi West 16.1 mph - N/A   Scattered Clouds
10:00 AM 56 °F - 47 °F 63% 29.81 in 9 mi West 16.1 mph - -   Scattered Clouds
10:55 AM 59.0 °F - 42.8 °F 55% 29.83 in 6.2 mi West 16.1 mph - N/A   Scattered Clouds
11:55 AM 59.0 °F - 39.2 °F 48% 29.83 in 6.2 mi West 23.0 mph - N/A   Scattered Clouds
12:55 PM 59.0 °F - 32.0 °F 36% 29.83 in 6.2 mi WNW 18.4 mph - N/A   Scattered Clouds
1:00 PM 58 °F - 32 °F 26% 29.83 in 6 mi WNW 18.4 mph - -   Scattered Clouds
1:55 PM 57.2 °F - 28.4 °F 33% 29.77 in 6.2 mi West 21.9 mph - N/A   Partly Cloudy
2:55 PM 59.0 °F - 30.2 °F 34% 29.80 in 6.2 mi West 16.1 mph - N/A   Partly Cloudy
3:55 PM 59.0 °F - 33.8 °F 39% 29.83 in 6.2 mi West 15.0 mph - N/A   Partly Cloudy
4:00 PM 59 °F - 33 °F 26% 29.85 in 6 mi West 15.0 mph - -   Scattered Clouds
4:55 PM 55.4 °F - 32.0 °F 41% 29.86 in 6.2 mi WSW 12.7 mph - N/A   Partly Cloudy
5:55 PM 50.0 °F - 42.8 °F 76% 29.89 in 6.2 mi West 5.8 mph - N/A   Partly Cloudy
6:55 PM 48.2 °F - 42.8 °F 82% 29.92 in 6.2 mi West 9.2 mph - N/A   Partly Cloudy
7:00 PM 48 °F - 43 °F 75% 29.92 in 6 mi West 9.2 mph - -   Scattered Clouds
7:55 PM 48.2 °F - 44.6 °F 87% 29.92 in 6.2 mi West 5.8 mph - N/A   Partly Cloudy
8:55 PM 46.4 °F 41.9 °F 44.6 °F 93% 29.89 in - West 9.2 mph - N/A   Clear
9:55 PM 46.4 °F 44.3 °F 42.8 °F 87% 29.92 in - West 4.6 mph - N/A   Clear
10:00 PM 47 °F - 43 °F 82% 29.93 in 10 mi West 4.6 mph - -  
10:55 PM 46.4 °F 41.9 °F 44.6 °F 93% 29.92 in - West 9.2 mph - N/A   Clear
11:55 PM 44.6 °F 39.7 °F 42.8 °F 93% 29.92 in - NW 9.2 mph - N/A   Clear